Tracking 29892 objects as of 21-Nov-2024
HD Live streaming from Space Station
objects crossing your sky now

STARLINK-5603

Track STARLINK-5603 now!
10-day predictions
STARLINK-5603 is classified as:


NORAD ID: 55762
Int'l Code: 2023-028X
Perigee: 577.1 km
Apogee: 581.3 km
Inclination: 70.0 °
Period: 96.1 minutes
Semi major axis: 6950 km
RCS: Unknown
Launch date: March 3, 2023
Source: United States (US)
Launch site: AIR FORCE WESTERN TEST RANGE (AFWTR)
Your satellite tracking list
Your tracking list is empty




NASA's NSSDC Master Catalog

Two Line Element Set (TLE):
1 55762U 23028X   24325.04768024  .00000164  00000-0  21575-4 0  9992
2 55762  69.9987 341.3034 0002974 268.1979  91.8839 14.98332944 95433
Source of the keplerian elements: AFSPC